CW7313 Drosia of Attica GR current weather conditions

sailwx.info

Wind from 084 at 2 knots gusting 9

Air temperature 16.7° C
Dewpoint 10.3° C

Last reported at 2018-Apr-20 15:35 UTC.
Time now 2018-Apr-20 16:43 UTC

Location: N 38°07' E 023°52'.
View on Google Maps.

See reports from other nearby stations

  
Tides and Currents Weather Stations Pressure Air Temp Water Temp Dewpoint Dewpoint Depression Visibility Wind Speed Wind Dir Waves Ship Positions
date/time (UTC)wind fromknots sea level pressurealtimeterstation pressurevisibilityair tempwater tempwave heightnotes
2018-Apr-20 15:35 084 2 gusting 9 16.7
2018-Apr-20 15:05 360 2 gusting 12 16.7
2018-Apr-20 14:35 071 0 gusting 11 16.7
2018-Apr-20 14:05 053 5 gusting 14 17.8
2018-Apr-20 13:35 011 0 gusting 12 17.8
2018-Apr-20 13:05 078 1 gusting 7 17.2
2018-Apr-20 12:35 087 1 gusting 10 20.0
2018-Apr-20 12:05 079 1 gusting 10 21.7
2018-Apr-20 11:35 067 5 gusting 19 21.7
2018-Apr-20 11:05 005 2 gusting 19 21.7
2018-Apr-20 10:35 005 7 gusting 18 21.7
2018-Apr-20 10:06 334 6 gusting 19 21.7
2018-Apr-20 09:35 316 6 gusting 19 21.7
2018-Apr-20 09:05 330 10 gusting 17 21.1
2018-Apr-20 08:35 348 6 gusting 19 21.1
2018-Apr-20 08:05 341 3 gusting 10 20.6
2018-Apr-20 07:35 012 6 gusting 17 20.0
2018-Apr-20 07:05 327 6 gusting 16 19.4
2018-Apr-20 06:35 316 6 gusting 13 19.4
2018-Apr-20 06:05 331 7 gusting 13 18.9
2018-Apr-20 05:35 306 4 gusting 11 18.3
2018-Apr-20 05:05 009 2 gusting 8 16.7
2018-Apr-20 04:35 074 13.3
2018-Apr-20 04:05 073 13.3
2018-Apr-20 03:36 073 12.8
2018-Apr-20 03:05 073 13.3
2018-Apr-20 02:35 072 13.3
2018-Apr-20 02:06 073 13.3
2018-Apr-20 01:35 073 13.3
2018-Apr-20 01:05 072 13.3
2018-Apr-20 00:35 071 13.3
2018-Apr-20 00:05 071 13.9
2018-Apr-19 23:35 087 13.9
2018-Apr-19 23:05 087 13.9
2018-Apr-19 22:35 087 13.9
2018-Apr-19 22:05 087 14.4
2018-Apr-19 21:35 087 14.4
2018-Apr-19 21:05 055 15.0
2018-Apr-19 20:35 055 15.6
2018-Apr-19 20:05 055 16.1
2018-Apr-19 19:35 044 16.7
2018-Apr-19 19:05 009 1 gusting 8 16.7
2018-Apr-19 18:35 038 2 gusting 7 16.7
2018-Apr-19 18:05 025 17.2
2018-Apr-19 17:35 067 17.2
2018-Apr-19 17:05 057 18.3
2018-Apr-19 16:35 032 18.9
2018-Apr-19 15:35 019 0 gusting 9 20.0
2018-Apr-19 15:05 019 2 gusting 10 20.6
2018-Apr-19 14:35 098 2 gusting 7 21.1
2018-Apr-19 14:05 070 0 gusting 11 21.1
2018-Apr-19 13:35 075 3 gusting 7 21.1
2018-Apr-19 13:05 061 2 gusting 9 21.1
2018-Apr-19 12:35 061 4 gusting 13 21.1
2018-Apr-19 12:05 022 2 gusting 10 21.1
2018-Apr-19 11:35 350 3 gusting 13 20.6
2018-Apr-19 11:05 360 1 gusting 10 20.6
2018-Apr-19 10:35 076 2 gusting 12 20.6
2018-Apr-19 10:05 060 2 gusting 13 20.6
2018-Apr-19 09:35 091 3 gusting 13 20.0
2018-Apr-19 09:05 047 2 gusting 12 20.0
2018-Apr-19 08:35 355 5 gusting 13 19.4
2018-Apr-19 08:05 090 5 gusting 14 18.9
2018-Apr-19 07:35 029 5 gusting 13 18.9
2018-Apr-19 07:05 063 6 gusting 16 18.3
2018-Apr-19 06:35 068 1 gusting 9 17.8
2018-Apr-19 06:05 350 1 gusting 14 17.2
2018-Apr-19 05:35 011 2 gusting 8 16.7
2018-Apr-19 05:05 342 1 gusting 9 16.1
2018-Apr-19 04:35 024 1 gusting 8 15.6
2018-Apr-19 04:05 022 2 gusting 10 15.6
2018-Apr-19 03:36 079 15.6
2018-Apr-19 03:05 316 0 gusting 7 15.6
2018-Apr-19 02:36 005 15.6
2018-Apr-19 02:05 043 0 gusting 8 15.6
2018-Apr-19 01:35 022 15.6
2018-Apr-19 01:05 063 0 gusting 4 15.0
2018-Apr-19 00:35 088 15.0
2018-Apr-19 00:05 099 15.0
2018-Apr-18 23:35 096 15.0
2018-Apr-18 23:05 100 15.0
2018-Apr-18 22:35 029 14.4
2018-Apr-18 22:05 020 14.4
2018-Apr-18 21:35 020 14.4
2018-Apr-18 21:05 020 15.0
2018-Apr-18 20:35 019 15.0
2018-Apr-18 20:05 020 15.0
2018-Apr-18 19:35 020 15.6
2018-Apr-18 19:05 349 15.6
2018-Apr-18 18:35 349 16.1
2018-Apr-18 18:05 349 17.2
2018-Apr-18 17:35 349 18.3
2018-Apr-18 17:05 355 18.9
2018-Apr-18 16:35 333 1 gusting 5 19.4
2018-Apr-18 16:05 355 3 gusting 11 20.0